Content
SEND FEEDBACK

Daily
Averages
Monthly
Summary
United States of America

HAZELWOOD, MISSOURI


Home > North America > United States > Missouri
Elevation: 570 feet     Latitude: 38 45N     Longitude: 090 22W

WEATHER
 
SELECT A DAY
Number of Records: 201,234;   Date Range: 1/1/95 - 12/18/14
 
SHARE

PRINT THIS DATA

[ ← Previous Day ]
WEATHER ALMANAC - JANUARY 7, 2013
[ Next Day → ]
[ °C ]   °F
Weather ElementAverageHighLow
Temperature33 °F48 °F (2:54 pm)17.1 °F (3:54 am)
Dewpoint19.7 °F24.8 °F (12:54 pm)12.9 °F (3:54 am)
Humidity61.3 %85 % (1:54 am)37 % (2:54 pm)
Barometer30.30 in30.43 in (2:54 am)30.17 in (11:54 pm)
Wind Speed3.6 mph10.4 mph (9:54 am)
Weather ElementAverage
Visibility9.9 mi
Wind DirectionESE (95.7 °)

Weather ElementTotal
Precipitation---
Heating Degree Days32.5 (Base 65)
Averaged from 23 records on January 7, 2013
WEATHER CONDITIONS BREAKOUT
WIND DIRECTION BREAKOUT
WEATHER BY HOUR - JANUARY 7, 2013
[ °C ]   °F
Local TimeTemperatureDewpointHumidityBarometerVisibilityWind DirectionWind SpeedGust SpeedPrecipitationEventsConditions
1:54 AM19.0 °F15.1 °F85 %30.41 in10.0 miCalmClear
2:54 AM19.0 °F15.1 °F85 %30.43 in10.0 miCalmClear
3:54 AM17.1 °F12.9 °F84 %30.42 in9.0 miCalmClear
4:54 AM18.0 °F14.0 °F84 %30.41 in9.0 miCalmClear
5:54 AM18.0 °F14.0 °F84 %30.40 in10.0 miCalmClear
6:54 AM17.1 °F12.9 °F84 %30.41 in9.0 miSW (220°)3.5 mphClear
7:54 AM18.0 °F14.0 °F84 %30.42 in10.0 miCalmClear
8:54 AM28.0 °F21.0 °F75 %30.41 in10.0 miCalmClear
9:54 AM34.0 °F23.0 °F64 %30.40 in10.0 miSouth (190°)10.4 mphClear
10:54 AM37.9 °F23.0 °F55 %30.39 in10.0 miSouth (190°)4.6 mphPartly Cloudy
11:54 AM41.0 °F23.0 °F49 %30.33 in10.0 miSouth (190°)9.2 mphPartly Cloudy
12:54 PM44.6 °F24.8 °F46 %30.25 in10.0 miSSE (150°)9.2 mphPartly Cloudy
1:54 PM46.9 °F24.1 °F41 %30.25 in10.0 miSSE (160°)8.1 mphClear
2:54 PM48.0 °F23.0 °F37 %30.24 in10.0 miSE (130°)6.9 mphScattered Clouds
3:54 PM46.0 °F21.9 °F39 %30.23 in10.0 miSSE (160°)4.6 mphScattered Clouds
4:54 PM44.6 °F21.2 °F39 %30.18 in10.0 miSE (140°)4.6 mphScattered Clouds
5:54 PM42.1 °F21.0 °F43 %30.22 in10.0 miSE (140°)3.5 mphScattered Clouds
6:54 PM41.0 °F21.0 °F45 %30.21 in10.0 miSouth (170°)6.9 mphClear
7:54 PM39.0 °F21.0 °F49 %30.19 in10.0 miSouth (170°)6.9 mphMostly Cloudy
8:54 PM37.0 °F21.9 °F54 %30.19 in10.0 miSouth (190°)4.6 mphPartly Cloudy
9:54 PM35.1 °F21.9 °F59 %30.19 in10.0 miCalmPartly Cloudy
10:54 PM34.0 °F21.9 °F61 %30.18 in10.0 miCalmClear
11:54 PM33.1 °F21.9 °F64 %30.17 in10.0 miCalmClear
Hourly data recorded from KSUS, located miles away from Hazelwood, Missouri







STORIES FROM OUR PARTNERS